Caumont Avignon, France

9:51 PM CET on November 12, 2019 (GMT +0100)
Caumont

Weather History for LFMV - October, 2019

Change the Weather History Date:

Monday, October 21, 2019

  Actual Average Record
Temperature  
Mean Temperature 62 °F -  
Max Temperature 66 °F - - ()
Min Temperature 59 °F - - ()
Degree Days  
Heating Degree Days 2    
Growing Degree Days 12 (Base 50)    
Moisture  
Dew Point 58 °F    
Average Humidity 86    
Maximum Humidity 94    
Minimum Humidity 77    
Precipitation  
Precipitation 0.00 in - - ()
Sea Level Pressure  
Sea Level Pressure 30.06 in    
Wind  
Wind Speed 6 mph ()    
Max Wind Speed 14 mph    
Max Gust Speed -    
Visibility 6.1 miles    
Events Rain    
T = Trace of Precipitation, MM = Missing Value Source: Averaged Metar Reports

Daily Weather History Graph

Daily Weather History Graph

Search for Another Location

Airport or City:

Astronomy

Oct. 21, 2019 Rise Set
Actual Time 8:01 AM CEST 6:47 PM CEST
Civil Twilight 7:32 AM CEST 7:16 PM CEST
Nautical Twilight 6:58 AM CEST 7:50 PM CEST
Astronomical Twilight 6:25 AM CEST 8:23 PM CEST
Moon No Moon Rise 3:14 PM CEST (10/21)
Length of Visible Light 11h 44m
Length of Day
10h 45m
Waning Gibbous, 51% of the Moon is Illuminated
Oct 21
Waning Gibbous
Oct 21
Last Quarter
Oct 28
New
Nov 4
First Quarter
Nov 12
Full

Hourly Weather History & Observations

Time (CEST) Temp. Dew Point Humidity Pressure Visibility Wind Dir Wind Speed Gust Speed Precip Events Conditions
12:00 AM 66.2 °F 60.8 °F 83% 29.92 in 6.2 mi Variable 1.2 mph - N/A   Overcast
1:30 AM 64.4 °F 60.8 °F 88% 29.95 in 6.2 mi SE 8.1 mph - N/A   Mostly Cloudy
2:00 AM 64.4 °F 59.0 °F 83% 29.98 in 6.2 mi SE 10.4 mph - N/A   Overcast
3:30 AM 64.4 °F 57.2 °F 77% 29.98 in 6.2 mi SE 13.8 mph - N/A   Unknown
4:00 AM 64.4 °F 57.2 °F 77% 29.98 in 6.2 mi SE 13.8 mph - N/A   Mostly Cloudy
5:00 AM 64.4 °F 57.2 °F 77% 29.95 in 6.2 mi SE 11.5 mph - N/A   Mostly Cloudy
5:30 AM 64.4 °F 57.2 °F 77% 29.98 in 6.2 mi SE 10.4 mph - N/A   Mostly Cloudy
6:00 AM 62.6 °F 57.2 °F 82% 29.98 in 6.2 mi Variable 3.5 mph - N/A   Mostly Cloudy
6:30 AM 62.6 °F 59.0 °F 88% 30.01 in 3.1 mi Variable 2.3 mph - N/A Rain Light Rain
7:00 AM 62.6 °F 57.2 °F 82% 30.01 in 6.2 mi ESE 5.8 mph - N/A   Mostly Cloudy
7:30 AM 62.6 °F 57.2 °F 82% 29.98 in 6.2 mi ESE 5.8 mph - N/A Rain Light Rain
8:00 AM 62.6 °F 57.2 °F 82% 30.01 in 6.2 mi ESE 4.6 mph - N/A   Overcast
9:00 AM 62.6 °F 59.0 °F 88% 30.01 in 6.2 mi SE 5.8 mph - N/A Rain Light Rain
9:30 AM 62.6 °F 59.0 °F 88% 30.04 in 6.2 mi SE 4.6 mph - N/A   Overcast
10:30 AM 62.6 °F 59.0 °F 88% 30.06 in 6.2 mi SE 9.2 mph - N/A   Mostly Cloudy
11:00 AM 62.6 °F 59.0 °F 88% 30.04 in 6.2 mi ESE 10.4 mph - N/A Rain Light Rain
11:30 AM 62.6 °F 59.0 °F 88% 30.06 in 6.2 mi SE 8.1 mph - N/A Rain Light Rain
1:00 PM 62.6 °F 59.0 °F 88% 30.09 in 6.2 mi SE 6.9 mph - N/A Rain Light Rain
1:30 PM 64.4 °F 59.0 °F 83% 30.09 in 6.2 mi SE 9.2 mph - N/A   Mostly Cloudy
2:00 PM 64.4 °F 59.0 °F 83% 30.06 in 6.2 mi ESE 8.1 mph - N/A Rain Light Rain
2:30 PM 62.6 °F 59.0 °F 88% 30.09 in 6.2 mi SE 9.2 mph - N/A   Mostly Cloudy
3:00 PM 64.4 °F 59.0 °F 83% 30.09 in 6.2 mi SE 8.1 mph - N/A   Mostly Cloudy
3:30 PM 64.4 °F 59.0 °F 83% 30.09 in 6.2 mi ESE 5.8 mph - N/A Rain Light Rain
4:00 PM 64.4 °F 59.0 °F 83% 30.12 in 6.2 mi SSE 6.9 mph - N/A Rain Light Rain
4:30 PM 62.6 °F 59.0 °F 88% 30.09 in 6.2 mi SSE 8.1 mph - N/A Rain Light Rain
5:00 PM 62.6 °F 59.0 °F 88% 30.09 in 5.6 mi SE 9.2 mph - N/A Rain Light Rain
5:30 PM 62.6 °F 59.0 °F 88% 30.09 in 6.2 mi ESE 10.4 mph - N/A Rain Light Rain
6:00 PM 62.6 °F 59.0 °F 88% 30.12 in 6.2 mi ESE 8.1 mph - N/A   Mostly Cloudy
6:30 PM 62.6 °F 59.0 °F 88% 30.12 in 6.2 mi SSE 3.5 mph - N/A Rain Light Rain
7:00 PM 60.8 °F 59.0 °F 94% 30.12 in 6.2 mi Variable 2.3 mph - N/A Rain Light Rain
7:30 PM 60.8 °F 57.2 °F 88% 30.12 in 6.2 mi SE 5.8 mph - N/A   Overcast
8:00 PM 60.8 °F 57.2 °F 88% 30.15 in 6.2 mi SE 5.8 mph - N/A   Mostly Cloudy
9:00 PM 60.8 °F 57.2 °F 88% 30.15 in 6.2 mi SE 5.8 mph - N/A Rain Light Rain
9:30 PM 60.8 °F 57.2 °F 88% 30.15 in 6.2 mi SSE 6.9 mph - N/A   Overcast
10:00 PM 59.0 °F 57.2 °F 94% 30.15 in 6.2 mi Variable 3.5 mph - N/A   Unknown
10:30 PM 59.0 °F 57.2 °F 94% 30.15 in - SSE 5.8 mph - N/A   Clear
11:00 PM 59.0 °F 57.2 °F 94% 30.15 in 6.2 mi SSE 4.6 mph - N/A   Overcast
11:30 PM 59.0 °F 57.2 °F 94% 30.15 in 6.2 mi ESE 3.5 mph - N/A   Overcast